Regional Weather Roundup
Issued by NWS Upton, NY

Current Version | Previous Version | Graphics & Text | Print | Product List | Glossary Off
Versions: 1 2 3 4 5 6 7 8 9 10 11 12 13 14 15 16 17 18 19 20 21 22 23 24 25 26 27

000
ASUS41 KOKX 260609
RWROKX

REGIONAL WEATHER ROUNDUP
NATIONAL WEATHER SERVICE NEW YORK NY
200 AM EDT WED APR 26 2017

NOTE: "FAIR" INDICATES FEW OR NO CLOUDS BELOW 12,000 FEET WITH NO
SIGNIFICANT WEATHER AND/OR OBSTRUCTIONS TO VISIBILITY.

NYZ071-072-176-178-NJZ106-104-260700-
NEW YORK CITY METRO AREA

CITY           SKY/WX    TMP DP  RH WIND       PRES   REMARKS
Central Park   CLOUDY    54  53  97 NE8G23    29.83F
Wall St Helipt CLOUDY    54  52  93 NE17G26   29.80S
Bronx Bot Gard   N/A     54  54 100 NE10      29.81F
LaGuardia APRT CLOUDY    53  51  93 NE22      29.80S FOG
Kennedy INTL   CLOUDY    55  54  96 N7        29.80S
Breezy Point     N/A     52 N/A N/A NE10        N/A
Newark/Liberty LGT RAIN  54  54 100 NE13      29.79F
Teterboro      DRIZZLE   56  55  97 NE8       29.79F FOG
$$

NYZ177-179-078>081-260700-
LONG ISLAND NEW YORK

CITY           SKY/WX    TMP DP  RH WIND       PRES   REMARKS
Jones Beach      N/A     55 N/A N/A E21G29      N/A
Matinecock PT    N/A     50 N/A N/A E16         N/A
Farmingdale    CLOUDY    54  53  97 N7        29.78F
MacArthur/ISP  CLOUDY    59  58  96 E16G24    29.79S
Shirley        CLOUDY    57  56  96 VRB7G17   29.80F
Mt Sinai Harb    N/A    N/A N/A N/A E10G16      N/A
Westhampton    LGT RAIN  55  53  93 E15G26    29.80F
East Hampton   LGT RAIN  54  53  97 E15G25    29.82F
Montauk        NOT AVBL
$$

NYZ052-065-067-260700-
HUDSON VALLEY

CITY           SKY/WX    TMP DP  RH WIND       PRES   REMARKS
White Plains   CLOUDY    54  52  93 NE10G22   29.79F
Larchmont Harb   N/A     54 N/A N/A NE15        N/A
Croton O-T Hud   N/A     52 N/A N/A NE3G9       N/A
Newburgh       NOT AVBL
Montgomery     LGT RAIN  51  49  92 NE12      29.84F
Poughkeepsie   CLOUDY    50  49  96 N7        29.85F FOG
Albany         LGT RAIN  50  48  93 N8        29.94F
$$

NJZ001-105-106-008-010-013-015-019>022-104-260700-
NEW JERSEY

CITY           SKY/WX    TMP DP  RH WIND       PRES   REMARKS
Newark/Liberty LGT RAIN  54  54 100 NE13      29.79F
Teterboro      DRIZZLE   56  55  97 NE8       29.79F FOG
Caldwell       CLOUDY    53  52  96 NE8       29.81S FOG
Somerville     CLOUDY    55  53  93 CALM      29.77S FOG
Linden         CLOUDY    55  53  94 NE9       29.79F FOG
Sussex         CLOUDY    51  50  96 N10       29.83F FOG
Andover          N/A     50  49  96 NE9       29.81F
Trenton        LGT RAIN  54  54 100 NE15      29.74  FOG
Millville      FOG       58  58 100 E9        29.68S VSB 3/4
Atlantic City  CLOUDY    57  56  96 E7        29.68F
Wrightstown    CLOUDY    55  55  98 NE12      29.70F FOG
Toms River     CLOUDY    56  55  97 NE9       29.73F FOG
Belmar         FOG       53  53 100 N10       29.76F VSB 1
$$

PAZ047>061-062-071-260700-
EASTERN PENNSYLVANIA

CITY           SKY/WX    TMP DP  RH WIND       PRES   REMARKS
Philadelphia   CLOUDY    56  54  93 NE14      29.72S
Allentown      CLOUDY    53  50  89 NE15      29.78F
Scranton       CLOUDY    53  50  89 NE10      29.81F
$$

CTZ002-004>006-009-010-012-RIZ004-006-007-MAZ004-011-015-260700-
SOUTHERN NEW ENGLAND
 IN CT

CITY           SKY/WX    TMP DP  RH WIND       PRES   REMARKS
Bradley INTL   LGT RAIN  48  47  96 N13       29.94F FOG
Hartford       LGT RAIN  49  48  97 N14       29.91F FOG
Danbury        CLOUDY    49  49 100 NE12      29.85F
Wtrbury/Oxford CLOUDY    48  45  87 NE12G20   29.87F
Bridgeport     LGT RAIN  55  52  89 NE14      29.83F FOG
Meriden        RAIN      51  48  89 N12       29.89F FOG
New Haven      LGT RAIN  51  50  96 NE12      29.85F FOG
Chester        LGT RAIN  54  54 100 NE8       29.87F
Groton         HVY RAIN  57  55  93 NE15G24   29.86F FOG
Wilimantic     LGT RAIN  51  49  92 NE12      29.92F FOG

 IN RI

CITY           SKY/WX    TMP DP  RH WIND       PRES   REMARKS
Providence     RAIN      51  51 100 N9        29.96F FOG
Block Island   NOT AVBL
Westerly       LGT RAIN  57  56  96 E14G22    29.89F FOG
 IN MA

CITY           SKY/WX    TMP DP  RH WIND       PRES   REMARKS
Boston         LGT RAIN  48  48 100 N13       30.00F FOG
Worcester      LGT RAIN  43  41  93 NE13G20   29.98F FOG
Westfield      LGT RAIN  47  47 100 N10       29.96F FOG
Provincetown   CLOUDY    53  52  96 SE14G20   29.99F FOG
Nantucket      FOG       52  51  97 E18G25    29.95F VSB 3/4
$$

ANZ330-335-338-340-345-350-353-355-260700-
COASTAL MARINE OBSERVATIONS


STATION/POSITION TIME  SKY/WX   TEMP    WIND        PRES    VSBY  WAVE
                                AIR SEA DIR/SP/G                  HT/PER
                 (UTC)          (F)     (DEG/KT/KT) (MB)    (MI)  (FT/S)
NY HARB ENTRANCE 0450            51 48   50/ 14/ 19 1007.8         10/12
20 S FIRE ISLAND 0550            51 47   90/ 17/ 21 1006.2         12/11
GREAT SOUTH BAY  0530            56 55   60/ 23/ 29   N/A
23 SSW MONTAUK P 0450            50 45              1010.2         10/11
15 E BARNEGAT LI 0530               49                N/A          10/11
HUDSON CANYON    0450            53 47  130/ 16/ 17 1006.7         13/11
KINGS POINT      0548               48   80/  6/ 12 1009.0
EXECUTION ROCKS  NOT AVBL
CENTRAL LI SOUND 0530            51      60/ 17/ 21   N/A           3/ 5
EASTERN LI SOUND NOT AVBL
ROBBINS REEF     0542                    50/ 19/ 22 1008.7
$$


>>>>>>>>>>>>>>>>>>>>>>>>>>>> KEY <<<<<<<<<<<<<<<<<<<<<<<<<<<
>                                                          <
>     SKY/WX - Sky Condition/Present Weather               <
>     TMP    - Temperature in Fahrenheit                   <
>     DP     - Dew Point in Fahrenheit                     <
>     RH     - Relative Humidity in Percent                <
>     WIND   - Direction (from) and Speed in MPH           <
>     PRES   - Mean Sea Level Pressure (inches of Hg)      <
>     WCI    - Wind Chill Index                            <
>     VSB    - VISIBILITY IN MILES                         <
>     HX     - HEAT INDEX                                  <
>     TC     - TEMPERATURE IN CELSIUS                      <
>     VRB    - VARIABLE WIND DIRECTION                     <
>                                                          <
>>>>>>>>>>>>>>>>>>>>>>>>>>>> KEY <<<<<<<<<<<<<<<<<<<<<<<<<<<




USA.gov is the U.S. government's official web portal to all federal, state and local government web resources and services.